Location: Unspecified
(0.0000°N, 0.0000°E)
Time: 19:48:26
(UTC+00:00)

STARLINK-32364 - Visible Passes

Search period start: 12 January 2025 00:00
Search period end: 22 January 2025 00:00
Orbit: 443 x 444 km, 43.0° (Epoch: 12 January)

Date Brightness Start Highest point End Pass type
(mag) Time Alt. Az. Time Alt. Az. Time Alt. Az.
12 Jan 5.8 19:06:01 10° WNW 19:07:48 13° NW 19:09:34 10° NNW visible
13 Jan 5.0 05:06:54 11° N 05:09:39 26° NE 05:12:39 10° ESE visible
14 Jan 5.4 04:28:56 17° NE 04:29:18 18° NE 04:31:46 10° E visible
15 Jan 4.1 05:24:25 15° WNW 05:26:51 34° SW 05:30:06 10° SSE visible
16 Jan 3.4 04:46:26 52° SW 04:46:31 52° SW 04:49:58 10° SSE visible
17 Jan 5.6 04:08:25 21° SE 04:08:25 21° SE 04:09:43 10° SE visible
